Location: Ústí nad Labem
(50.6611°N, 14.0531°E)
Time: 18:28:27
(UTC+02:00)

S-56A Canister/Altair - Pass Details

Date: 06 May 2025
Orbit: 633 x 2485 km, 38.9° (Epoch: 12 May)

Event Time Altitude Azimuth Distance (km) Brightness Sun altitude
Rises 21:53:13 0° 253° (WSW) 3,029 11.0 -11.1°
Reaches altitude 10° 21:55:48 10° 237° (WSW) 2,233 10.1 -11.4°
Maximum altitude 21:59:43 22° 187° (S) 1,773 9.0 -11.8°
Enters shadow 22:02:54 15° 149° (SSE) 2,356 9.4 -12.1°
